Regional Weather Roundup
Issued by NWS Green Bay, WI

Home | Current Version | Previous Version | Text Only | Print | Product List | Glossary On
Versions: 1 2 3 4 5 6 7 8 9 10 11 12 13 14 15 16 17 18 19 20 21 22 23 24 25 26 27 28 29 30 31 32 33 34 35 36 37 38 39 40 41 42 43 44 45 46 47 48 49 50
000
ASUS43 KGRB 180759
RWRGRB

NORTH-CENTRAL AND NORTHEAST WISCONSIN REGIONAL WEATHER ROUNDUP
NATIONAL WEATHER SERVICE GREEN BAY WI
300 AM CDT SAT APR 18 2015

WIZ005-009-010>012-018-019-180900-
NORTH CENTRAL WISCONSIN

CITY           SKY/WX    TMP DP  RH WIND       PRES   REMARKS
IRONWOOD       CLEAR     45  32  61 NE14G20   30.12R
MANITOWISH WTR NOT AVBL
ARBOR VITAE    NOT AVBL
EAGLE RIVER    NOT AVBL
LAND O LAKES   NOT AVBL
RHINELANDER    CLEAR     49  28  44 NE10      30.09R
PHILLIPS       NOT AVBL
ANTIGO         NOT AVBL
TOMAHAWK       NOT AVBL
MERRILL        NOT AVBL
$$

WIZ013-073-180900-
NORTHEAST WISCONSIN

CITY           SKY/WX    TMP DP  RH WIND       PRES   REMARKS
IRON MOUNTAIN  CLEAR     48  32  53 N10       30.07R
MARINETTE      CLEAR     43  36  75 N9        30.03R
$$

WIZ017-030-035>037-045-180900-
CENTRAL WISCONSIN

CITY           SKY/WX    TMP DP  RH WIND       PRES   REMARKS
MEDFORD        NOT AVBL
WAUSAU         CLEAR     49  38  65 N6        30.03R
MOSINEE        NOT AVBL
MARSHFIELD     CLEAR     50  33  52 NW6       30.04R
WISC RAPIDS    PTCLDY    45  35  68 CALM      30.04S
STEVENS POINT  NOT AVBL
WAUPACA        NOT AVBL
SHAWANO        NOT AVBL
CLINTONVILLE   NOT AVBL
$$

WIZ038-039-048-051-180900-
FOX VALLEY

CITY           SKY/WX    TMP DP  RH WIND       PRES   REMARKS
NWS GREEN BAY  CLEAR     49  43  80 CALM      30.01R
APPLETON       NOT AVBL
OSHKOSH        MOCLDY    55  42  61 W8        30.01R
FOND DU LAC    MOCLDY    48  42  80 S3        30.01R
$$

WIZ022-050-052-180900-
EAST CENTRAL WISCONSIN

CITY           SKY/WX    TMP DP  RH WIND       PRES   REMARKS
STURGEON BAY   CLEAR     43  36  75 W3        30.02R
MANITOWOC      NOT AVBL
SHEBOYGAN      MOCLDY    51  42  71 W3        30.00S
$$

LMZ563-521-522-541>543-180900-
LAKESHORE

STATION/POSITION TIME  TEMP    WIND        PRES    VSBY  WAVE
                       AIR SEA DIR/SP/G                  HT/PER
                 (UTC) (F)     (DEG/KT/KT) (MB)    (MI)  (FT/S)
SHEBOYGAN LKSHOR 0700   58     270/  8/  9 1016.0F
KEWAUNEE LKSHORE 0700   46      CALM  /  1 1015.0R
NORTHPORT PIER   0700   43      CALM  /  2 1014.9F
SISTER BAY LKSHO 0700   42        CALM       N/A
CHAMBERS ISLAND  0700   37     180/  2/  3 1015.6S
MENOMINEE LKSHOR 0700   45     260/  4/  6 1016.3R
$$



USA.gov is the U.S. government's official web portal to all federal, state and local government web resources and services.